Location: Geyikbay?r?
(36.8756°N, 30.4583°E)
Time: 06:30:58
(UTC+00:00)

DELTA 2 R/B (1) - Pass Details

Date: 05 August 2024
Orbit: 789 x 800 km, 39.6° (Epoch: 09 September)

Event Time Altitude Azimuth Distance (km) Brightness Sun altitude
Rises 19:10:50 0° 286° (WNW) 3,299 7.8 -22.7°
Reaches altitude 10° 19:13:19 10° 286° (WNW) 2,369 6.9 -23.0°
Maximum altitude 19:18:55 79° 200° (SSW) 814 3.5 -23.8°
Enters shadow 19:19:47 63° 132° (SE) 886 3.5 -23.9°
